When you browse on this site, cookies collect data to enhance your experience and personalize the content and advertising you see.
Visit our Privacy Policy to learn more. By continuing to use the site, you agree to this use of cookies and data.
  • In Romania
  • List of Countries
  • For 7 days
  • Water Temperature
  • Satellite Maps
  • Weather Map
  • Weather Widgets
  • user-avatar
    Login

    Hourly Weather Stepanakert

    Today, 16 June, Sunday

    Time Temperature Precipitation Wind Pressure Humidity
    00:00 +20°C° 0 mm 1 mps 691 mmHg 64%
    01:00 +20°C° 0 mm 1 mps 691 mmHg 64%
    02:00 +20°C° 0 mm 1 mps 691 mmHg 64%
    03:00 +20°C° 0 mm 1 mps 691 mmHg 64%
    04:00 +20°C° 0 mm 1 mps 691 mmHg 65%
    05:00 +21°C° 0 mm 1 mps 691 mmHg 65%
    06:00 +22°C° 0 mm 1 mps 691 mmHg 65%
    07:00 +24°C° 0 mm 1 mps 691 mmHg 60%
    08:00 +25°C° 0 mm 1 mps 692 mmHg 54%
    09:00 +27°C° 0 mm 2 mps 692 mmHg 49%
    10:00 +28°C° 0 mm 2 mps 691 mmHg 47%
    11:00 +28°C° 0 mm 2 mps 691 mmHg 46%
    12:00 +29°C° 0 mm 2 mps 691 mmHg 45%
    13:00 +30°C° 0 mm 2 mps 691 mmHg 45%
    14:00 +30°C° 0 mm 2 mps 690 mmHg 44%
    15:00 +31°C° 0 mm 2 mps 690 mmHg 44%
    16:00 +30°C° 0.2 mm 1 mps 690 mmHg 49%
    17:00 +29°C° 0.2 mm 1 mps 689 mmHg 54%
    18:00 +28°C° 0.2 mm 1 mps 689 mmHg 59%
    19:00 +27°C° 0.1 mm 1 mps 689 mmHg 61%
    20:00 +25°C° 0.1 mm 1 mps 689 mmHg 62%
    21:00 +23°C° 0.1 mm 2 mps 690 mmHg 63%
    22:00 +23°C° 0 mm 2 mps 689 mmHg 62%
    23:00 +23°C° 0 mm 2 mps 689 mmHg 60%

    Tomorrow, 17 June, Monday

    Time Temperature Precipitation Wind Pressure Humidity
    00:00 +23°C° 0 mm 2 mps 689 mmHg 59%
    01:00 +21°C° 0 mm 2 mps 689 mmHg 59%
    02:00 +21°C° 0 mm 2 mps 689 mmHg 59%
    03:00 +21°C° 0 mm 2 mps 689 mmHg 59%
    04:00 +22°C° 0 mm 1 mps 689 mmHg 60%
    05:00 +23°C° 0 mm 1 mps 689 mmHg 61%
    06:00 +24°C° 0 mm 1 mps 689 mmHg 63%
    07:00 +25°C° 0 mm 1 mps 689 mmHg 60%
    08:00 +27°C° 0 mm 1 mps 690 mmHg 56%
    09:00 +28°C° 0 mm 2 mps 690 mmHg 53%
    10:00 +29°C° 0 mm 2 mps 690 mmHg 52%
    11:00 +29°C° 0 mm 2 mps 690 mmHg 52%
    12:00 +30°C° 0 mm 2 mps 690 mmHg 51%
    13:00 +30°C° 0.3 mm 2 mps 689 mmHg 52%
    14:00 +30°C° 0.3 mm 2 mps 689 mmHg 54%
    15:00 +30°C° 0.3 mm 2 mps 688 mmHg 55%
    16:00 +30°C° 0.5 mm 2 mps 688 mmHg 57%
    17:00 +29°C° 0.5 mm 1 mps 688 mmHg 58%
    18:00 +29°C° 0.5 mm 1 mps 688 mmHg 60%
    19:00 +27°C° 0.4 mm 1 mps 689 mmHg 62%
    20:00 +26°C° 0.4 mm 1 mps 689 mmHg 65%
    21:00 +22°C° 0.4 mm 0 mps 690 mmHg 67%
    22:00 +24°C° 0.2 mm 1 mps 689 mmHg 68%
    23:00 +23°C° 0.2 mm 1 mps 689 mmHg 69%

    Day after tomorrow, 18 June, Tuesday

    Time Temperature Precipitation Wind Pressure Humidity
    00:00 +22°C° 0.2 mm 1 mps 689 mmHg 70%
    01:00 +22°C° 0 mm 1 mps 689 mmHg 70%
    02:00 +22°C° 0 mm 1 mps 689 mmHg 70%
    03:00 +22°C° 0 mm 1 mps 689 mmHg 69%
    04:00 +22°C° 0 mm 1 mps 690 mmHg 69%
    05:00 +23°C° 0 mm 1 mps 690 mmHg 68%
    06:00 +24°C° 0 mm 1 mps 690 mmHg 68%
    07:00 +25°C° 0 mm 1 mps 690 mmHg 63%
    08:00 +26°C° 0 mm 2 mps 690 mmHg 58%
    09:00 +27°C° 0 mm 2 mps 691 mmHg 53%
    10:00 +28°C° 0 mm 2 mps 690 mmHg 51%
    11:00 +29°C° 0 mm 2 mps 690 mmHg 48%
    12:00 +30°C° 0 mm 3 mps 690 mmHg 46%
    13:00 +30°C° 0.2 mm 3 mps 690 mmHg 45%
    14:00 +30°C° 0.2 mm 2 mps 689 mmHg 45%
    15:00 +30°C° 0.2 mm 2 mps 689 mmHg 44%
    16:00 +29°C° 0.2 mm 2 mps 689 mmHg 48%
    17:00 +29°C° 0.2 mm 2 mps 689 mmHg 52%
    18:00 +28°C° 0.2 mm 2 mps 689 mmHg 56%
    19:00 +26°C° 0.1 mm 2 mps 689 mmHg 58%
    20:00 +25°C° 0.1 mm 2 mps 689 mmHg 59%
    21:00 +23°C° 0.1 mm 2 mps 690 mmHg 61%
    22:00 +23°C° 0.1 mm 2 mps 690 mmHg 61%
    23:00 +21°C° 0.1 mm 2 mps 690 mmHg 60%

    19 June, Wednesday

    Time Temperature Precipitation Wind Pressure Humidity
    00:00 +21°C° 0.1 mm 2 mps 690 mmHg 60%
    01:00 +21°C° 0 mm 2 mps 690 mmHg 59%
    02:00 +20°C° 0 mm 2 mps 690 mmHg 59%
    03:00 +20°C° 0 mm 2 mps 689 mmHg 58%
    04:00 +21°C° 0 mm 2 mps 690 mmHg 59%
    05:00 +21°C° 0 mm 2 mps 690 mmHg 60%
    06:00 +23°C° 0 mm 2 mps 690 mmHg 62%
    07:00 +24°C° 0 mm 2 mps 690 mmHg 54%
    08:00 +26°C° 0 mm 2 mps 691 mmHg 47%
    09:00 +27°C° 0 mm 2 mps 691 mmHg 40%
    10:00 +28°C° 0 mm 2 mps 691 mmHg 39%
    11:00 +29°C° 0 mm 2 mps 691 mmHg 38%
    12:00 +30°C° 0 mm 3 mps 691 mmHg 37%
    13:00 +30°C° 0 mm 3 mps 690 mmHg 37%
    14:00 +30°C° 0 mm 3 mps 690 mmHg 38%
    15:00 +30°C° 0 mm 4 mps 690 mmHg 38%
    16:00 +30°C° 0 mm 3 mps 690 mmHg 41%
    17:00 +29°C° 0 mm 3 mps 689 mmHg 45%
    18:00 +28°C° 0 mm 2 mps 689 mmHg 49%
    19:00 +26°C° 0 mm 2 mps 689 mmHg 50%
    20:00 +25°C° 0 mm 2 mps 689 mmHg 51%
    21:00 +23°C° 0 mm 2 mps 689 mmHg 52%
    22:00 +21°C° 0 mm 2 mps 689 mmHg 52%
    23:00 +21°C° 0 mm 2 mps 690 mmHg 52%

    20 June, Thursday

    Time Temperature Precipitation Wind Pressure Humidity
    00:00 +20°C° 0 mm 2 mps 690 mmHg 53%
    01:00 +20°C° 0 mm 2 mps 689 mmHg 52%
    02:00 +20°C° 0 mm 2 mps 689 mmHg 52%
    03:00 +20°C° 0 mm 2 mps 689 mmHg 52%
    04:00 +20°C° 0 mm 2 mps 689 mmHg 53%
    05:00 +22°C° 0 mm 1 mps 690 mmHg 55%
    06:00 +23°C° 0 mm 1 mps 690 mmHg 57%
    07:00 +24°C° 0 mm 2 mps 690 mmHg 52%
    08:00 +25°C° 0 mm 2 mps 690 mmHg 47%
    09:00 +27°C° 0 mm 3 mps 690 mmHg 41%
    10:00 +28°C° 0 mm 3 mps 690 mmHg 40%
    11:00 +28°C° 0 mm 3 mps 690 mmHg 39%
    12:00 +29°C° 0 mm 4 mps 690 mmHg 38%
    13:00 +30°C° 0 mm 4 mps 690 mmHg 38%
    14:00 +30°C° 0 mm 4 mps 689 mmHg 38%
    15:00 +30°C° 0 mm 4 mps 689 mmHg 38%
    16:00 +29°C° 0 mm 4 mps 689 mmHg 41%
    17:00 +29°C° 0 mm 3 mps 689 mmHg 45%
    18:00 +28°C° 0 mm 3 mps 689 mmHg 48%
    19:00 +26°C° 0 mm 3 mps 689 mmHg 50%
    20:00 +24°C° 0 mm 2 mps 689 mmHg 52%
    21:00 +22°C° 0 mm 1 mps 689 mmHg 54%
    22:00 +22°C° 0 mm 1 mps 689 mmHg 54%
    23:00 +22°C° 0 mm 1 mps 689 mmHg 54%

    21 June, Friday

    Time Temperature Precipitation Wind Pressure Humidity
    00:00 +20°C° 0 mm 2 mps 689 mmHg 54%
    01:00 +20°C° 0 mm 2 mps 689 mmHg 56%
    02:00 +19°C° 0 mm 2 mps 689 mmHg 57%
    03:00 +19°C° 0 mm 2 mps 689 mmHg 58%
    04:00 +20°C° 0.1 mm 2 mps 689 mmHg 59%
    05:00 +20°C° 0.1 mm 2 mps 690 mmHg 59%
    06:00 +22°C° 0.1 mm 1 mps 690 mmHg 60%
    07:00 +23°C° 0.3 mm 2 mps 690 mmHg 56%
    08:00 +24°C° 0.3 mm 2 mps 691 mmHg 53%
    09:00 +25°C° 0.3 mm 3 mps 691 mmHg 49%
    10:00 +25°C° 0.3 mm 3 mps 691 mmHg 49%
    11:00 +25°C° 0.3 mm 3 mps 691 mmHg 49%
    12:00 +25°C° 0.3 mm 2 mps 691 mmHg 49%
    13:00 +26°C° 0.1 mm 2 mps 691 mmHg 49%
    14:00 +26°C° 0.1 mm 2 mps 691 mmHg 49%
    15:00 +27°C° 0.1 mm 1 mps 691 mmHg 49%
    16:00 +26°C° 0 mm 1 mps 691 mmHg 52%
    17:00 +26°C° 0 mm 1 mps 691 mmHg 55%
    18:00 +25°C° 0 mm 1 mps 691 mmHg 58%
    19:00 +24°C° 0 mm 1 mps 691 mmHg 60%
    20:00 +23°C° 0 mm 1 mps 691 mmHg 62%
    21:00 +22°C° 0 mm 1 mps 692 mmHg 65%
    22:00 +21°C° 0 mm 1 mps 692 mmHg 66%
    23:00 +20°C° 0 mm 2 mps 692 mmHg 67%
    Show more